When you browse on this site, cookies collect data to enhance your experience and personalize the content and advertising you see.
Visit our Privacy Policy to learn more. By continuing to use the site, you agree to this use of cookies and data.
  • In Hungary
  • List of Countries
  • For 7 days
  • Water Temperature
  • Satellite Maps
  • Weather Map
  • News
  • Weather Widgets
  • user-avatar
    Login

    Hourly Weather Onufrievka

    Today, 17 January, Thursday

    Time Temperature Precipitation Wind Pressure Humidity
    00:00 -8°C° 0 mm 1 mps 748 mmHg 95%
    01:00 -9°C° 0 mm 1 mps 749 mmHg 96%
    02:00 -9°C° 0 mm 0 mps 749 mmHg 97%
    03:00 -8°C° 0 mm 0 mps 750 mmHg 97%
    04:00 -8°C° 0 mm 1 mps 750 mmHg 96%
    05:00 -7°C° 0 mm 1 mps 750 mmHg 96%
    06:00 -7°C° 0 mm 1 mps 751 mmHg 96%
    07:00 -8°C° 0 mm 2 mps 751 mmHg 95%
    08:00 -8°C° 0 mm 2 mps 751 mmHg 95%
    09:00 -9°C° 0 mm 3 mps 751 mmHg 94%
    10:00 -9°C° 0 mm 4 mps 751 mmHg 93%
    11:00 -8°C° 0 mm 4 mps 751 mmHg 92%
    12:00 -8°C° 0 mm 4 mps 751 mmHg 90%
    13:00 -7°C° 0 mm 5 mps 751 mmHg 89%
    14:00 -6°C° 0 mm 5 mps 751 mmHg 87%
    15:00 -7°C° 0 mm 5 mps 751 mmHg 87%
    16:00 -7°C° 0 mm 5 mps 751 mmHg 87%
    17:00 -9°C° 0 mm 6 mps 750 mmHg 87%
    18:00 -8°C° 0 mm 6 mps 750 mmHg 87%
    19:00 -8°C° 0 mm 7 mps 750 mmHg 86%
    20:00 -7°C° 0 mm 7 mps 750 mmHg 85%
    21:00 -7°C° 0 mm 7 mps 750 mmHg 86%
    22:00 -7°C° 0 mm 7 mps 750 mmHg 87%
    23:00 -7°C° 0 mm 7 mps 750 mmHg 88%

    Tomorrow, 18 January, Friday

    Time Temperature Precipitation Wind Pressure Humidity
    00:00 -6°C° 0 mm 7 mps 750 mmHg 90%
    01:00 -3°C° 0 mm 7 mps 750 mmHg 91%
    02:00 -2°C° 0 mm 7 mps 750 mmHg 92%
    03:00 -2°C° 0 mm 6 mps 750 mmHg 93%
    04:00 -2°C° 0 mm 6 mps 749 mmHg 94%
    05:00 -1°C° 0 mm 5 mps 749 mmHg 95%
    06:00 -1°C° 0 mm 5 mps 749 mmHg 94%
    07:00 -1°C° 0 mm 5 mps 749 mmHg 94%
    08:00 -2°C° 0 mm 5 mps 749 mmHg 94%
    09:00 -2°C° 0 mm 5 mps 749 mmHg 94%
    10:00 -2°C° 0 mm 5 mps 749 mmHg 94%
    11:00 -2°C° 0 mm 5 mps 749 mmHg 93%
    12:00 -1°C° 0 mm 5 mps 749 mmHg 93%
    13:00 -1°C° 0 mm 5 mps 748 mmHg 93%
    14:00 -1°C° 0 mm 5 mps 748 mmHg 93%
    15:00 -1°C° 0 mm 5 mps 748 mmHg 92%
    16:00 -2°C° 0 mm 5 mps 748 mmHg 90%
    17:00 -2°C° 0 mm 5 mps 748 mmHg 89%
    18:00 -2°C° 0 mm 5 mps 748 mmHg 89%
    19:00 -2°C° 0 mm 5 mps 748 mmHg 88%
    20:00 -2°C° 0 mm 5 mps 749 mmHg 88%
    21:00 -3°C° 0 mm 4 mps 749 mmHg 89%
    22:00 -3°C° 0 mm 4 mps 749 mmHg 91%
    23:00 -4°C° 0 mm 4 mps 750 mmHg 92%

    Day after tomorrow, 19 January, Saturday

    Time Temperature Precipitation Wind Pressure Humidity
    00:00 -3°C° 0.3 mm 4 mps 750 mmHg 92%
    01:00 -1°C° 0.3 mm 3 mps 751 mmHg 92%
    02:00 -1°C° 0.3 mm 3 mps 751 mmHg 92%
    03:00 -2°C° 0 mm 3 mps 752 mmHg 91%
    04:00 -4°C° 0 mm 4 mps 752 mmHg 91%
    05:00 -5°C° 0 mm 4 mps 752 mmHg 90%
    06:00 -7°C° 0 mm 4 mps 753 mmHg 91%
    07:00 -7°C° 0 mm 4 mps 754 mmHg 91%
    08:00 -8°C° 0 mm 4 mps 755 mmHg 91%
    09:00 -8°C° 0 mm 4 mps 755 mmHg 89%
    10:00 -8°C° 0 mm 4 mps 756 mmHg 87%
    11:00 -7°C° 0 mm 4 mps 756 mmHg 84%
    12:00 -6°C° 0 mm 3 mps 756 mmHg 85%
    13:00 -6°C° 0 mm 3 mps 756 mmHg 87%
    14:00 -6°C° 0 mm 3 mps 756 mmHg 88%
    15:00 -6°C° 0 mm 2 mps 757 mmHg 89%
    16:00 -7°C° 0 mm 2 mps 757 mmHg 91%
    17:00 -8°C° 0 mm 2 mps 757 mmHg 92%
    18:00 -8°C° 0 mm 1 mps 757 mmHg 93%
    19:00 -8°C° 0 mm 1 mps 758 mmHg 94%
    20:00 -8°C° 0 mm 1 mps 758 mmHg 94%
    21:00 -9°C° 0 mm 1 mps 758 mmHg 94%
    22:00 -9°C° 0 mm 1 mps 758 mmHg 95%
    23:00 -9°C° 0 mm 1 mps 758 mmHg 95%

    20 January, Sunday

    Time Temperature Precipitation Wind Pressure Humidity
    00:00 -10°C° 0 mm 1 mps 758 mmHg 94%
    01:00 -10°C° 0 mm 1 mps 758 mmHg 93%
    02:00 -10°C° 0 mm 1 mps 758 mmHg 93%
    03:00 -10°C° 0 mm 1 mps 758 mmHg 92%
    04:00 -10°C° 0 mm 1 mps 758 mmHg 91%
    05:00 -10°C° 0 mm 1 mps 757 mmHg 90%
    06:00 -10°C° 0 mm 1 mps 757 mmHg 90%
    07:00 -12°C° 0 mm 2 mps 757 mmHg 90%
    08:00 -12°C° 0 mm 2 mps 757 mmHg 89%
    09:00 -10°C° 0 mm 2 mps 757 mmHg 89%
    10:00 -8°C° 0 mm 2 mps 757 mmHg 89%
    11:00 -8°C° 0 mm 3 mps 757 mmHg 88%
    12:00 -7°C° 0 mm 3 mps 757 mmHg 88%
    13:00 -7°C° 0 mm 3 mps 756 mmHg 88%
    14:00 -6°C° 0 mm 3 mps 755 mmHg 88%
    15:00 -6°C° 0 mm 3 mps 755 mmHg 89%
    16:00 -6°C° 0 mm 3 mps 755 mmHg 89%
    17:00 -6°C° 0 mm 3 mps 754 mmHg 90%
    18:00 -7°C° 0.2 mm 4 mps 754 mmHg 90%
    19:00 -7°C° 0.2 mm 4 mps 753 mmHg 90%
    20:00 -7°C° 0.2 mm 5 mps 753 mmHg 91%
    21:00 -7°C° 0.8 mm 5 mps 752 mmHg 92%
    22:00 -7°C° 0.8 mm 5 mps 751 mmHg 94%
    23:00 -8°C° 0.8 mm 6 mps 751 mmHg 95%

    21 January, Monday

    Time Temperature Precipitation Wind Pressure Humidity
    00:00 -6°C° 1.4 mm 5 mps 750 mmHg 95%
    01:00 -6°C° 1.4 mm 5 mps 749 mmHg 95%
    02:00 -5°C° 1.4 mm 4 mps 749 mmHg 96%
    03:00 -4°C° 0.6 mm 3 mps 748 mmHg 96%
    04:00 -3°C° 0.6 mm 2 mps 748 mmHg 97%
    05:00 -1°C° 0.6 mm 1 mps 747 mmHg 97%
    06:00 -3°C° 0 mm 2 mps 747 mmHg 97%
    07:00 -3°C° 0 mm 2 mps 747 mmHg 96%
    08:00 -4°C° 0 mm 3 mps 747 mmHg 96%
    09:00 -4°C° 0 mm 4 mps 748 mmHg 95%
    10:00 -5°C° 0 mm 5 mps 748 mmHg 94%
    11:00 -6°C° 0 mm 6 mps 748 mmHg 93%
    12:00 -6°C° 0 mm 6 mps 749 mmHg 91%
    13:00 -6°C° 0 mm 6 mps 749 mmHg 89%
    14:00 -8°C° 0 mm 6 mps 749 mmHg 87%
    15:00 -8°C° 0 mm 6 mps 750 mmHg 87%
    16:00 -9°C° 0 mm 6 mps 750 mmHg 87%
    17:00 -8°C° 0 mm 5 mps 751 mmHg 87%
    18:00 -8°C° 0 mm 5 mps 751 mmHg 88%
    19:00 -8°C° 0 mm 4 mps 751 mmHg 89%
    20:00 -8°C° 0 mm 4 mps 752 mmHg 91%
    21:00 -8°C° 0 mm 5 mps 752 mmHg 90%
    22:00 -8°C° 0 mm 5 mps 752 mmHg 89%
    23:00 -9°C° 0 mm 6 mps 753 mmHg 88%

    22 January, Tuesday

    Time Temperature Precipitation Wind Pressure Humidity
    00:00 -9°C° 0 mm 6 mps 753 mmHg 88%
    01:00 -9°C° 0 mm 6 mps 753 mmHg 88%
    02:00 -9°C° 0 mm 6 mps 754 mmHg 88%
    03:00 -9°C° 0 mm 6 mps 754 mmHg 88%
    04:00 -9°C° 0 mm 6 mps 755 mmHg 88%
    05:00 -10°C° 0 mm 6 mps 755 mmHg 88%
    06:00 -11°C° 0 mm 5 mps 756 mmHg 88%
    07:00 -12°C° 0 mm 5 mps 756 mmHg 88%
    08:00 -13°C° 0 mm 5 mps 757 mmHg 88%
    09:00 -12°C° 0 mm 4 mps 757 mmHg 88%
    10:00 -11°C° 0 mm 4 mps 758 mmHg 88%
    11:00 -11°C° 0 mm 4 mps 758 mmHg 88%
    12:00 -10°C° 0 mm 3 mps 758 mmHg 88%
    13:00 -10°C° 0 mm 3 mps 758 mmHg 88%
    14:00 -8°C° 0 mm 2 mps 758 mmHg 88%
    15:00 -10°C° 0 mm 2 mps 758 mmHg 89%
    16:00 -12°C° 0 mm 2 mps 758 mmHg 89%
    17:00 -13°C° 0 mm 2 mps 757 mmHg 89%
    18:00 -14°C° 0 mm 2 mps 757 mmHg 87%
    19:00 -14°C° 0 mm 2 mps 757 mmHg 85%
    20:00 -15°C° 0 mm 2 mps 757 mmHg 83%
    21:00 -12°C° 0 mm 1 mps 757 mmHg 81%
    22:00 -12°C° 0 mm 1 mps 757 mmHg 79%
    23:00 -12°C° 0 mm 1 mps 757 mmHg 77%
    Show more